JBU1905 KFLL-KTPA

Flight info

Callsign JBU1905
Flight time 0h 41m
Altitude 24000
Route BNICE2 COREA BLFRG3
Aircraft A320/M-SDE3FGHIRWY/LB1

Departure

Time 2026-05-06 11:13
Airport Fort Lauderdale Hollywood International Airport (KFLL)

Arrival

Time 2026-05-06 11:55
Airport Tampa International Airport (KTPA)
Time Latitude Longitude Altitude Speed Heading
2026-05-06 10:58 26.07233 -80.14721 18 ft 3 kts 96°
2026-05-06 10:58 26.07232 -80.14747 20 ft 4 kts 50°
2026-05-06 10:58 26.07219 -80.14754 19 ft 4 kts 317°
2026-05-06 10:58 26.07212 -80.14733 17 ft 1 kts 275°
2026-05-06 11:02 26.07213 -80.14739 16 ft 2 kts 277°
2026-05-06 11:02 26.07222 -80.14758 18 ft 4 kts 305°
2026-05-06 11:02 26.07245 -80.14794 16 ft 7 kts 305°
2026-05-06 11:03 26.07250 -80.14801 16 ft 0 kts 305°
2026-05-06 11:04 26.07250 -80.14802 16 ft 0 kts 305°
2026-05-06 11:05 26.07251 -80.14803 16 ft 1 kts 305°
2026-05-06 11:05 26.07256 -80.14810 16 ft 1 kts 305°
2026-05-06 11:05 26.07258 -80.14815 16 ft 0 kts 305°
2026-05-06 11:06 26.07260 -80.14818 16 ft 2 kts 305°
2026-05-06 11:06 26.07273 -80.14837 16 ft 4 kts 307°
2026-05-06 11:06 26.07303 -80.14854 16 ft 6 kts 351°
2026-05-06 11:06 26.07348 -80.14853 16 ft 6 kts
2026-05-06 11:07 26.07378 -80.14853 16 ft 0 kts
2026-05-06 11:07 26.07392 -80.14852 16 ft 5 kts
2026-05-06 11:07 26.07426 -80.14836 16 ft 7 kts 27°
2026-05-06 11:08 26.07474 -80.14843 16 ft 8 kts 323°
2026-05-06 11:08 26.07488 -80.14907 16 ft 10 kts 269°
2026-05-06 11:08 26.07489 -80.14973 16 ft 0 kts 270°
2026-05-06 11:09 26.07489 -80.14975 16 ft 2 kts 270°
2026-05-06 11:09 26.07489 -80.15030 16 ft 12 kts 270°
2026-05-06 11:09 26.07489 -80.15136 16 ft 15 kts 270°
2026-05-06 11:09 26.07490 -80.15262 16 ft 17 kts 270°
2026-05-06 11:10 26.07491 -80.15404 16 ft 19 kts 270°
2026-05-06 11:10 26.07492 -80.15561 16 ft 21 kts 270°
2026-05-06 11:10 26.07493 -80.15717 16 ft 17 kts 270°
2026-05-06 11:10 26.07494 -80.15846 16 ft 18 kts 270°
2026-05-06 11:11 26.07494 -80.15990 16 ft 19 kts 270°
2026-05-06 11:11 26.07495 -80.16149 16 ft 22 kts 270°
2026-05-06 11:11 26.07496 -80.16324 16 ft 24 kts 270°
2026-05-06 11:11 26.07497 -80.16495 16 ft 18 kts 270°
2026-05-06 11:12 26.07507 -80.16625 17 ft 15 kts 300°
2026-05-06 11:12 26.07599 -80.16643 17 ft 13 kts
2026-05-06 11:12 26.07688 -80.16630 18 ft 12 kts 42°
2026-05-06 11:12 26.07695 -80.16523 19 ft 20 kts 91°
2026-05-06 11:13 26.07693 -80.16145 19 ft 82 kts 90°
2026-05-06 11:13 26.07688 -80.15290 16 ft 136 kts 90°
2026-05-06 11:13 26.07682 -80.14093 174 ft 162 kts 90°
2026-05-06 11:13 26.07680 -80.12847 801 ft 162 kts 89°
2026-05-06 11:14 26.07736 -80.11577 1391 ft 167 kts 79°
2026-05-06 11:14 26.08009 -80.10296 1858 ft 175 kts 75°
2026-05-06 11:14 26.08355 -80.08929 2102 ft 198 kts 73°
2026-05-06 11:14 26.09015 -80.07491 2375 ft 222 kts 47°
2026-05-06 11:15 26.10363 -80.06530 2784 ft 243 kts 20°
2026-05-06 11:15 26.12017 -80.05881 3357 ft 259 kts 19°
2026-05-06 11:15 26.13330 -80.05368 3988 ft 263 kts 19°
2026-05-06 11:15 26.14425 -80.04978 4504 ft 267 kts 12°
2026-05-06 11:16 26.16289 -80.04942 5337 ft 272 kts 347°
2026-05-06 11:16 26.18093 -80.05588 6205 ft 274 kts 340°
2026-05-06 11:16 26.19894 -80.06310 7026 ft 277 kts 337°
2026-05-06 11:16 26.21554 -80.07401 7819 ft 279 kts 320°
2026-05-06 11:17 26.22859 -80.09003 8622 ft 282 kts 304°
2026-05-06 11:17 26.23716 -80.10973 9412 ft 285 kts 293°
2026-05-06 11:17 26.24438 -80.13039 10168 ft 287 kts 294°
2026-05-06 11:17 26.25182 -80.15185 10440 ft 308 kts 291°
2026-05-06 11:18 26.25714 -80.17598 10565 ft 333 kts 282°
2026-05-06 11:18 26.26091 -80.20213 10720 ft 351 kts 281°
2026-05-06 11:18 26.26478 -80.22933 11190 ft 358 kts 281°
2026-05-06 11:18 26.26867 -80.25685 11775 ft 361 kts 281°
2026-05-06 11:19 26.27258 -80.28450 12386 ft 363 kts 281°
2026-05-06 11:19 26.27653 -80.31243 13003 ft 365 kts 281°
2026-05-06 11:19 26.28044 -80.34012 13610 ft 367 kts 281°
2026-05-06 11:19 26.28448 -80.36869 14180 ft 370 kts 281°
2026-05-06 11:20 26.28849 -80.39707 14704 ft 372 kts 282°
2026-05-06 11:20 26.29248 -80.42523 15216 ft 374 kts 282°
2026-05-06 11:20 26.29653 -80.45387 15734 ft 377 kts 282°
2026-05-06 11:20 26.30061 -80.48280 16257 ft 379 kts 282°
2026-05-06 11:21 26.30472 -80.51191 16779 ft 382 kts 282°
2026-05-06 11:21 26.30885 -80.54124 17298 ft 384 kts 283°
2026-05-06 11:21 26.31301 -80.57078 17818 ft 387 kts 283°
2026-05-06 11:21 26.31720 -80.60054 18340 ft 390 kts 283°
2026-05-06 11:22 26.32139 -80.63049 18793 ft 393 kts 283°
2026-05-06 11:22 26.32561 -80.66066 19262 ft 395 kts 283°
2026-05-06 11:22 26.32984 -80.69102 19732 ft 397 kts 283°
2026-05-06 11:22 26.33407 -80.72143 20192 ft 399 kts 283°
2026-05-06 11:23 26.33832 -80.75206 20646 ft 401 kts 282°
2026-05-06 11:23 26.34258 -80.78283 21088 ft 403 kts 282°
2026-05-06 11:23 26.34543 -80.80327 21368 ft 404 kts 282°
2026-05-06 11:23 26.34975 -80.83430 21801 ft 406 kts 282°
2026-05-06 11:24 26.35409 -80.86544 22217 ft 408 kts 282°
2026-05-06 11:24 26.36029 -80.89612 22612 ft 406 kts 291°
2026-05-06 11:24 26.37145 -80.92504 22981 ft 405 kts 301°
2026-05-06 11:24 26.38720 -80.95100 23347 ft 405 kts 311°
2026-05-06 11:25 26.41359 -80.98047 23779 ft 407 kts 317°
2026-05-06 11:25 26.42761 -80.99511 23963 ft 408 kts 317°
2026-05-06 11:25 26.44830 -81.01679 24051 ft 410 kts 317°
2026-05-06 11:25 26.46933 -81.03891 24077 ft 419 kts 317°
2026-05-06 11:26 26.49067 -81.06139 24075 ft 425 kts 317°
2026-05-06 11:26 26.51223 -81.08411 24074 ft 426 kts 317°
2026-05-06 11:26 26.53351 -81.10655 24074 ft 426 kts 317°
2026-05-06 11:26 26.55511 -81.12930 24074 ft 427 kts 317°
2026-05-06 11:27 26.57669 -81.15201 24073 ft 427 kts 317°
2026-05-06 11:27 26.59828 -81.17476 24080 ft 427 kts 317°
2026-05-06 11:27 26.61984 -81.19752 24077 ft 426 kts 317°
2026-05-06 11:27 26.64062 -81.22110 24068 ft 426 kts 311°
2026-05-06 11:28 26.65925 -81.24691 24072 ft 426 kts 309°
2026-05-06 11:28 26.67779 -81.27273 24070 ft 426 kts 309°
2026-05-06 11:28 26.69634 -81.29854 24063 ft 426 kts 309°
2026-05-06 11:28 26.71494 -81.32439 24061 ft 425 kts 309°
2026-05-06 11:29 26.73349 -81.35018 24063 ft 425 kts 309°
2026-05-06 11:29 26.75201 -81.37594 24061 ft 425 kts 309°
2026-05-06 11:29 26.77056 -81.40168 24060 ft 425 kts 309°
2026-05-06 11:29 26.78913 -81.42747 24059 ft 425 kts 309°
2026-05-06 11:30 26.80767 -81.45327 24055 ft 425 kts 309°
2026-05-06 11:30 26.82612 -81.47899 24055 ft 425 kts 309°
2026-05-06 11:30 26.84459 -81.50478 24055 ft 425 kts 309°
2026-05-06 11:30 26.86306 -81.53061 24055 ft 425 kts 309°
2026-05-06 11:31 26.88154 -81.55645 24055 ft 425 kts 309°
2026-05-06 11:31 26.89999 -81.58227 24055 ft 425 kts 309°
2026-05-06 11:31 26.91848 -81.60810 24057 ft 425 kts 309°
2026-05-06 11:31 26.93672 -81.63358 24070 ft 425 kts 309°
2026-05-06 11:32 26.95520 -81.65939 24068 ft 424 kts 309°
2026-05-06 11:32 26.97366 -81.68520 24072 ft 424 kts 309°
2026-05-06 11:32 26.99207 -81.71099 24074 ft 424 kts 309°
2026-05-06 11:32 27.01044 -81.73679 24076 ft 423 kts 309°
2026-05-06 11:33 27.02881 -81.76262 24077 ft 423 kts 309°
2026-05-06 11:33 27.04715 -81.78838 24077 ft 423 kts 309°
2026-05-06 11:33 27.06553 -81.81417 24078 ft 423 kts 309°
2026-05-06 11:33 27.08502 -81.83877 24074 ft 422 kts 316°
2026-05-06 11:34 27.10771 -81.85972 24075 ft 422 kts 322°
2026-05-06 11:34 27.13117 -81.87954 24073 ft 422 kts 322°
2026-05-06 11:34 27.15464 -81.89934 24072 ft 422 kts 322°
2026-05-06 11:34 27.17811 -81.91913 24070 ft 422 kts 322°
2026-05-06 11:35 27.20157 -81.93892 24008 ft 422 kts 322°
2026-05-06 11:35 27.22502 -81.95875 23782 ft 420 kts 322°
2026-05-06 11:35 27.24837 -81.97852 23562 ft 419 kts 322°
2026-05-06 11:35 27.27161 -81.99822 23297 ft 418 kts 322°
2026-05-06 11:36 27.29474 -82.01785 23034 ft 416 kts 322°
2026-05-06 11:36 27.31777 -82.03742 22777 ft 414 kts 322°
2026-05-06 11:36 27.34075 -82.05695 22522 ft 412 kts 322°
2026-05-06 11:36 27.36334 -82.07613 22274 ft 411 kts 322°
2026-05-06 11:37 27.38592 -82.09570 22026 ft 409 kts 321°
2026-05-06 11:37 27.40807 -82.11585 21776 ft 408 kts 320°
2026-05-06 11:37 27.42981 -82.13628 21530 ft 407 kts 320°
2026-05-06 11:37 27.45118 -82.15702 21183 ft 403 kts 318°
2026-05-06 11:38 27.47157 -82.17849 20468 ft 400 kts 316°
2026-05-06 11:38 27.49128 -82.20045 19778 ft 397 kts 315°
2026-05-06 11:38 27.51064 -82.22252 19115 ft 394 kts 315°
2026-05-06 11:38 27.52987 -82.24440 18477 ft 392 kts 316°
2026-05-06 11:39 27.54911 -82.26602 17808 ft 389 kts 316°
2026-05-06 11:39 27.56836 -82.28735 17216 ft 385 kts 317°
2026-05-06 11:39 27.58748 -82.30833 16598 ft 383 kts 317°
2026-05-06 11:39 27.60662 -82.32923 15985 ft 381 kts 317°
2026-05-06 11:40 27.62563 -82.34996 15407 ft 379 kts 317°
2026-05-06 11:40 27.64448 -82.37054 14831 ft 376 kts 317°
2026-05-06 11:40 27.66355 -82.39058 14232 ft 373 kts 322°
2026-05-06 11:40 27.68518 -82.40640 13598 ft 369 kts 334°
2026-05-06 11:41 27.70897 -82.41669 12986 ft 365 kts 345°
2026-05-06 11:41 27.73379 -82.42127 12364 ft 361 kts 356°
2026-05-06 11:41 27.75864 -82.42105 11772 ft 358 kts
2026-05-06 11:41 27.78349 -82.42033 11163 ft 356 kts
2026-05-06 11:42 27.80794 -82.41970 10908 ft 344 kts
2026-05-06 11:42 27.83132 -82.41912 10787 ft 328 kts
2026-05-06 11:42 27.85367 -82.41860 10666 ft 315 kts
2026-05-06 11:42 27.87518 -82.41809 10559 ft 303 kts
2026-05-06 11:43 27.89564 -82.41758 10442 ft 293 kts
2026-05-06 11:43 27.91571 -82.41709 10248 ft 286 kts
2026-05-06 11:43 27.93538 -82.41661 10176 ft 281 kts
2026-05-06 11:44 27.97450 -82.41568 9890 ft 283 kts
2026-05-06 11:44 27.99453 -82.41523 9404 ft 287 kts
2026-05-06 11:44 28.01432 -82.41480 9107 ft 283 kts
2026-05-06 11:44 28.03395 -82.41435 8756 ft 282 kts
2026-05-06 11:45 28.05352 -82.41389 8417 ft 281 kts
2026-05-06 11:45 28.07299 -82.41342 8082 ft 279 kts
2026-05-06 11:45 28.09238 -82.41293 7753 ft 278 kts
2026-05-06 11:45 28.09715 -82.41281 7665 ft 278 kts
2026-05-06 11:46 28.10978 -82.41250 7447 ft 277 kts
2026-05-06 11:46 28.12891 -82.41211 7249 ft 271 kts
2026-05-06 11:46 28.14759 -82.41186 7002 ft 267 kts
2026-05-06 11:47 28.16603 -82.41164 6733 ft 265 kts
2026-05-06 11:47 28.18445 -82.41142 6449 ft 263 kts
2026-05-06 11:47 28.20267 -82.41120 6152 ft 261 kts
2026-05-06 11:47 28.22081 -82.41096 5858 ft 260 kts
2026-05-06 11:48 28.23876 -82.41172 5556 ft 257 kts 347°
2026-05-06 11:48 28.25439 -82.42042 5261 ft 256 kts 318°
2026-05-06 11:48 28.26407 -82.43682 5100 ft 249 kts 289°
2026-05-06 11:48 28.26717 -82.45557 5089 ft 236 kts 272°
2026-05-06 11:49 28.26534 -82.47366 5094 ft 228 kts 256°
2026-05-06 11:49 28.25931 -82.48993 5046 ft 223 kts 240°
2026-05-06 11:49 28.24964 -82.50361 4918 ft 223 kts 223°
2026-05-06 11:49 28.23701 -82.51372 4732 ft 223 kts 207°
2026-05-06 11:50 28.22249 -82.51941 4483 ft 220 kts 191°
2026-05-06 11:50 28.20727 -82.52069 4211 ft 219 kts 182°
2026-05-06 11:50 28.19207 -82.52120 3924 ft 217 kts 182°
2026-05-06 11:50 28.17701 -82.52172 3652 ft 216 kts 181°
2026-05-06 11:51 28.16220 -82.52222 3363 ft 211 kts 181°
2026-05-06 11:51 28.14791 -82.52272 3096 ft 201 kts 181°
2026-05-06 11:51 28.13423 -82.52319 2878 ft 191 kts 181°
2026-05-06 11:51 28.12102 -82.52364 2625 ft 188 kts 181°
2026-05-06 11:52 28.10807 -82.52408 2361 ft 184 kts 180°
2026-05-06 11:52 28.09574 -82.52451 2123 ft 173 kts 180°
2026-05-06 11:52 28.08385 -82.52491 1918 ft 166 kts 180°
2026-05-06 11:52 28.07307 -82.52529 1706 ft 146 kts 180°
2026-05-06 11:53 28.06337 -82.52562 1510 ft 139 kts 180°
2026-05-06 11:53 28.05382 -82.52594 1337 ft 136 kts 179°
2026-05-06 11:53 28.04448 -82.52626 1162 ft 135 kts 179°
2026-05-06 11:53 28.03513 -82.52658 989 ft 134 kts 179°
2026-05-06 11:54 28.02575 -82.52690 818 ft 135 kts 179°
2026-05-06 11:54 28.01642 -82.52721 647 ft 137 kts 179°
2026-05-06 11:54 28.00692 -82.52756 459 ft 138 kts 179°
2026-05-06 11:54 27.99733 -82.52793 277 ft 140 kts 179°
2026-05-06 11:55 27.98748 -82.52823 85 ft 141 kts 181°
2026-05-06 11:55 27.97884 -82.52851 38 ft 94 kts 182°
2026-05-06 11:55 27.97501 -82.52863 38 ft 35 kts 182°
2026-05-06 11:55 27.97274 -82.52877 38 ft 22 kts 191°
2026-05-06 11:56 27.97192 -82.52941 39 ft 12 kts 258°
2026-05-06 11:56 27.97241 -82.52996 41 ft 12 kts 359°
2026-05-06 11:56 27.97330 -82.52993 41 ft 14 kts
2026-05-06 11:56 27.97380 -82.53062 42 ft 13 kts 272°
2026-05-06 11:57 27.97384 -82.53166 43 ft 14 kts 272°
2026-05-06 11:57 27.97388 -82.53244 43 ft 10 kts 283°
2026-05-06 11:57 27.97433 -82.53250 43 ft 5 kts 21°
2026-05-06 11:57 27.97452 -82.53242 43 ft 2 kts 19°
2026-05-06 11:59 27.97772 -82.53187 43 ft 0 kts 207°
2026-05-06 11:59 27.97652 -82.53162 43 ft 0 kts 282°
2026-05-06 12:04 28.02200 -82.52702 749 ft 135 kts 179°
2026-05-06 12:04 28.01151 -82.52738 563 ft 138 kts 180°
2026-05-06 12:05 28.00206 -82.52777 367 ft 136 kts 179°
2026-05-06 12:05 27.99231 -82.52806 177 ft 142 kts 180°
2026-05-06 12:05 27.98267 -82.52841 40 ft 128 kts 181°
2026-05-06 12:05 27.97626 -82.52859 39 ft 49 kts 181°
2026-05-06 12:06 28.01185 -82.52737 566 ft 138 kts 180°
2026-05-06 12:06 28.00223 -82.52776 371 ft 136 kts 179°
2026-05-06 12:06 27.99253 -82.52805 182 ft 142 kts 180°
2026-05-06 12:06 27.98283 -82.52841 40 ft 128 kts 181°
2026-05-06 12:07 27.98639 -82.52827 61 ft 140 kts 180°
2026-05-06 12:07 27.98532 -82.52832 50 ft 138 kts 180°
2026-05-06 12:08 27.99657 -82.52795 263 ft 140 kts 179°
2026-05-06 12:08 27.98980 -82.52814 135 ft 142 kts 181°
2026-05-06 12:08 27.98048 -82.52843 40 ft 114 kts 182°
2026-05-06 12:08 28.01384 -82.52730 600 ft 6 kts 180°
2026-05-06 12:09 28.00400 -82.52769 403 ft 137 kts 179°
2026-05-06 12:09 27.99433 -82.52801 217 ft 141 kts 179°
2026-05-06 12:09 27.98456 -82.52835 43 ft 135 kts 180°
2026-05-06 12:09 27.97709 -82.52857 39 ft 67 kts 181°
2026-05-06 12:10 28.00781 -82.52752 478 ft 128 kts 179°
2026-05-06 12:10 28.00418 -82.52769 406 ft 137 kts 179°
2026-05-06 12:10 27.99451 -82.52800 219 ft 141 kts 179°
2026-05-06 12:10 27.98798 -82.52821 97 ft 141 kts 181°
2026-05-06 12:11 27.97913 -82.52850 38 ft 98 kts 182°
2026-05-06 12:11 28.00854 -82.52749 488 ft 135 kts 180°
2026-05-06 12:12 27.99872 -82.52788 304 ft 140 kts 179°
2026-05-06 12:12 27.98888 -82.52818 112 ft 141 kts 181°
2026-05-06 12:12 27.97989 -82.52846 39 ft 108 kts 182°
2026-05-06 12:13 27.97534 -82.52862 38 ft 35 kts 182°
2026-05-06 12:13 27.97297 -82.52873 38 ft 29 kts 187°
2026-05-06 12:13 27.99125 -82.52809 115 ft 2 kts 180°
2026-05-06 12:13 27.98808 -82.52821 97 ft 141 kts 181°
2026-05-06 12:14 28.00323 -82.52773 387 ft 137 kts 179°
2026-05-06 12:14 27.97383 -82.53162 41 ft 14 kts 272°
2026-05-06 12:14 27.97382 -82.53295 43 ft 14 kts 271°
2026-05-06 12:14 28.00468 -82.52766 410 ft 135 kts 180°
2026-05-06 12:15 27.99554 -82.52802 250 ft 133 kts 180°
2026-05-06 12:15 27.98678 -82.52827 52 ft 120 kts 180°
2026-05-06 12:15 27.97903 -82.52846 39 ft 100 kts 181°
2026-05-06 12:15 27.99493 -82.52805 239 ft 125 kts 181°
2026-05-06 12:25 27.98694 -82.52826 56 ft 120 kts 180°
2026-05-06 12:26 27.98796 -82.52824 86 ft 121 kts 180°
2026-05-06 12:26 27.98918 -82.52822 107 ft 119 kts 180°